(410) Chloris
ephemeris date magn radius delta ra dec elong phase
Today15 Jan 202514.12.805 AU3.037 AU00h21m-08°24'67.1°18.8°
Opposition5 Dec 202513.23.338 AU2.357 AU04h54m+16°23'173.8°1.8°
(410) Chloris - 2025-01-15
astro.vanbuitenen.nl


 
-1 year
-1 month
-1 day
Now
+1 day
+1 month
+1 year

The interactive orbit chart above shows the body's path through the solar system and its position at the given date. Green and blue lines are shown perpendicular to the ecliptic plane: Green if the path is above the ecliptic plane, blue if it is below. (Left-click and drag to rotate the view; Right-click and drag to move the view; Use scroll wheel to zoom in our out.)

The orbital elements of Chloris are:

            e (Eccentricity)                : 0.2407139
            a (Semimajor axis)              : 2.7242057
            i (Inclination)                 : 10.96345
            Ω (Longitude of ascending node) : 96.91711
            ω (Argument of perihelion)      : 172.76282
            M (Mean anomaly)                : 63.70602
            Epoch                           : 2024 Oct 17

            L (Longitude of perihelion)     : 89.81066
            B (Latitude of perihelion)      : 1.37286
            P (Orbital period in years)     : 4.50            
        

The light curve chart below shows the estimated development of the minor planet's magnitude.


The all-sky chart below shows the path of the minor planet over the same period as the light curve. The current position is marked yellow.





The following chart shows the path of the minor planet in the next few days. The field of view is optimized for (~10x50) binoculars and finderscopes. A more printer-friendly version of the same chart can be found below.




Ephemerides:
Date       Time       RA (2000)    DEC (2000)    delta   radius  elong  phase   PA    magn
2025-01-15 00:00 UT   00 21 18.8   -08 24 54     3.037    2.805   67.1   18.8    70   14.1 
2025-01-15 05:19 UT   00 21 33.5   -08 22 37     3.040    2.806   67.0   18.8    71   14.1 
2025-01-16 00:00 UT   00 22 25.2   -08 14 32     3.052    2.808   66.5   18.7    71   14.1 
2025-01-17 00:00 UT   00 23 31.9   -08 04 09     3.067    2.810   65.8   18.6    71   14.1 
2025-01-18 00:00 UT   00 24 39.2   -07 53 45     3.082    2.813   65.1   18.5    71   14.1 
2025-01-19 00:00 UT   00 25 46.8   -07 43 21     3.096    2.815   64.4   18.4    71   14.1 
2025-01-20 00:00 UT   00 26 54.8   -07 32 56     3.111    2.818   63.7   18.3    71   14.1 
2025-01-21 00:00 UT   00 28 03.3   -07 22 31     3.126    2.820   63.1   18.1    71   14.1 
2025-01-22 00:00 UT   00 29 12.2   -07 12 05     3.140    2.822   62.4   18.0    71   14.1 
2025-01-23 00:00 UT   00 30 21.4   -07 01 40     3.155    2.825   61.7   17.9    72   14.1 
2025-01-24 00:00 UT   00 31 31.1   -06 51 14     3.169    2.827   61.0   17.7    72   14.1 
2025-01-25 00:00 UT   00 32 41.1   -06 40 47     3.184    2.829   60.4   17.6    72   14.2 
2025-01-26 00:00 UT   00 33 51.5   -06 30 21     3.198    2.832   59.7   17.5    72   14.2 
2025-01-27 00:00 UT   00 35 02.3   -06 19 54     3.212    2.834   59.0   17.3    72   14.2 
2025-01-28 00:00 UT   00 36 13.4   -06 09 28     3.226    2.837   58.4   17.2    72   14.2 
2025-01-29 00:00 UT   00 37 24.9   -05 59 01     3.240    2.839   57.7   17.1    72   14.2 
2025-01-30 00:00 UT   00 38 36.7   -05 48 35     3.254    2.841   57.0   16.9    73   14.2 
2025-01-31 00:00 UT   00 39 48.9   -05 38 08     3.268    2.844   56.4   16.8    73   14.2 
2025-02-01 00:00 UT   00 41 01.4   -05 27 42     3.282    2.846   55.7   16.6    73   14.2 
2025-02-02 00:00 UT   00 42 14.2   -05 17 16     3.296    2.848   55.1   16.5    73   14.2 
2025-02-03 00:00 UT   00 43 27.4   -05 06 50     3.309    2.851   54.4   16.3    73   14.2 
2025-02-04 00:00 UT   00 44 40.8   -04 56 25     3.323    2.853   53.8   16.2    73   14.2 
2025-02-05 00:00 UT   00 45 54.6   -04 45 60     3.336    2.856   53.1   16.0    74   14.2 
2025-02-06 00:00 UT   00 47 08.6   -04 35 35     3.350    2.858   52.5   15.9    74   14.2 
2025-02-07 00:00 UT   00 48 22.9   -04 25 11     3.363    2.860   51.8   15.7    74   14.2 
2025-02-08 00:00 UT   00 49 37.5   -04 14 48     3.376    2.863   51.2   15.6    74   14.2 


    Terminology:
            
    delta:  distance between minor planet and earth in AU
    radius: distance between minor planet and sun in AU
    magn:   magnitude (brightness) estimate    
    ra:     right ascension in hours (24h = 360deg)
    dec:    declination in degrees
    elong:  elongation in degrees (angle sun-earth-minor planet)    
    phase:  phase angle in degrees (angle sun-minor planet-earth)        
    AU:     Astronomical Unit (mean distance between earth and sun: 149597870.7 km
    

Orbital elements provided by the MPC (Minor Planet Center).
Calculations by a modified version of AAPlus, a C# implementation of the AA+ project by PJ Naughter from the algorithms presented in the book "Astronomical Algorithms" by Jean Meeus.
NGC2000 dso catalog and star labels from VizieR as provided by the Strasbourg astronomical Data Center.
Tycho2 catalog from the ESO archive.